Regional Weather Roundup
Issued by NWS State College, PA

Home | Current Version | Previous Version | Text Only | Print | Product List | Glossary On
Versions: 1 2 3 4 5 6 7 8 9 10 11 12 13 14 15 16 17 18 19 20 21 22 23 24 25 26 27 28 29 30 31 32 33 34 35 36 37 38 39 40 41 42 43 44 45 46 47 48 49 50
000
ASUS41 KCTP 020910
RWRCTP

REGIONAL WEATHER ROUNDUP
NATIONAL WEATHER SERVICE STATE COLLEGE PA
500 AM EDT WED SEP 02 2015

Note: "fair" indicates few or no clouds below 12,000 feet with no
significant weather and/or obstructions to visibility.

* = STATION THAT DOES NOT REPORT PRECIPITATION /E.G. RAIN...SNOW...ETC/
    THUNDER OR FOG.

PAZ002>004-007>009-013>016-020>023-029>032-021000-
WESTERN PENNSYLVANIA

CITY           SKY/WX    TMP DP  RH WIND       PRES   REMARKS
ERIE           PTCLDY    70  63  78 S8        30.06F
MEADVILLE      MOCLDY    69  63  81 S3        30.11S
FRANKLIN*      CLEAR     63  61  94 CALM      30.13S
NEW CASTLE     FAIR      66  66 100 CALM      30.11S FOG
BEAVER COUNTY  NOT AVBL
BUTLER*          N/A     64  64 100 CALM      30.12S VSB 1/2
PITTSBURGH INT CLOUDY    71  66  84 CALM      30.09S
PITTSBURGH     PTCLDY    71  63  75 SW3       30.09S
INDIANA*       NOT AVBL
LATROBE        NOT AVBL
WASHINGTON CO* MOCLDY    66  64  94 CALM      30.11S
$$

PAZ004>006-010>012-017>019-024>028-033>037-041-042-045-046-049>053-021000-
CENTRAL PENNSYLVANIA

CITY           SKY/WX    TMP DP  RH WIND       PRES   REMARKS
BRADFORD       PTCLDY    54  53  97 CALM      30.14S FOG
DUBOIS         PTCLDY    67  62  84 CALM      30.12R HAZE
CLEARFIELD     FOG       62  61  96 CALM      30.12S VSB 1/4
JOHNSTOWN      CLEAR     67  61  81 SW5       30.15S
ALTOONA        PTCLDY    64  61  90 CALM      30.11F FOG
STATE COLLEGE  PTCLDY    64  63  97 CALM      30.09S FOG
WILLIAMSPORT   CLOUDY    68  65  90 W3        30.04S FOG
SELINSGROVE    CLEAR     61  59  93 CALM      30.06R FOG
FT INDIANTOWN  FOG       63  63 100 CALM      30.04S VSB 3/4
CAPITAL CITY   CLEAR     66  63  90 NW5       30.04S
HARRISBURG     MOCLDY    69  65  86 CALM      30.03S
YORK           FOG       61  60  97 CALM      30.05S VSB 3/4
$$

PAZ038>040-043-044-047-048-054-055-060>062-067>071-021000-
EASTERN PENNSYLVANIA

CITY           SKY/WX    TMP DP  RH WIND       PRES   REMARKS
SCRANTON       CLEAR     65  61  87 E6        30.06S
MOUNT POCONO   CLEAR     58  56  93 CALM      30.10S
ALLENTOWN      CLEAR     64  62  93 CALM      30.04S FOG
QUAKERTOWN*    SUNNY     63  63 100 CALM      30.05S
READING        CLEAR     67  64  90 CALM      30.03S
LANCASTER      CLEAR     67  64  90 CALM      30.04S FOG
COATESVILLE    SUNNY     66  66 100 W3        30.05S FOG
POTTSTOWN      CLEAR     65  65 100 CALM      30.05S
BLUE BELL        N/A     63  63 100 CALM      30.03S VSB 1/4
DOYLESTOWN     CLEAR     65  65 100 CALM      30.03S FOG
WILLOW GROVE   NOT AVBL
NORTH PHILA    MOCLDY    70  65  84 NE3       30.04S HAZE
PHILADELPHIA   MOCLDY    74  70  87 CALM      30.03S FOG
$$


USA.gov is the U.S. government's official web portal to all federal, state and local government web resources and services.